FW2761 Weather Reports


Display with metric or nautical units.
time (UTC)temp
F
wind
direction
speed
MPH
gust
MPH
rain 1hr
in
rain 24hr
in
rain mn
in
humidity
%
barometer
mb
20260506090016 52 321 0.0 0.0 0.00 0.00 0.00 44 1019.0
20260506084519 52 321 0.0 3.0 0.00 0.00 0.00 44 1019.1
20260506083013 52 321 0.0 3.0 0.00 0.00 0.00 44 1019.1
20260506081512 52 323 0.0 0.0 0.00 0.00 0.00 43 1019.1
20260506073006 52 324 0.0 0.0 0.00 0.00 0.00 42 1018.7
20260506071503 53 324 0.0 0.0 0.00 0.00 0.00 42 1018.5
20260506061558 54 324 0.0 0.0 0.00 0.00 0.00 41 1017.8
20260506044559 56 324 0.0 0.0 0.00 0.00 0.00 40 1017.3
20260506043050 57 324 0.0 0.0 0.00 0.00 0.00 40 1017.2
20260506041603 57 324 0.0 0.0 0.00 0.00 0.00 40 1016.9
20260506040048 58 324 0.0 0.0 0.00 0.00 0.00 41 1016.7
20260506034547 58 324 0.0 0.0 0.00 0.00 0.00 41 1016.6
20260506033046 59 324 0.0 0.0 0.00 0.00 0.00 43 1016.2
20260506031547 60 324 0.0 2.0 0.00 0.00 0.00 43 1016.1
20260506030044 62 324 0.0 3.0 0.00 0.00 0.00 43 1015.8
20260506024544 63 325 1.0 2.0 0.00 0.00 0.00 43 1015.8
20260506023043 64 327 2.0 5.0 0.00 0.00 0.00 42 1015.6
20260506021544 66 311 1.0 4.0 0.00 0.00 0.00 40 1015.5
20260506020041 67 327 1.0 5.0 0.00 0.00 0.00 38 1015.4
20260506014548 67 325 2.0 5.0 0.00 0.00 0.00 38 1015.2
20260506013040 68 309 2.0 4.0 0.00 0.00 0.00 37 1015.2
20260506011541 68 270 2.0 7.0 0.00 0.00 0.00 37 1015.3
20260506010038 68 259 2.0 6.0 0.00 0.00 0.00 37 1015.3
20260506004542 66 298 3.0 9.0 0.00 0.00 0.00 38 1015.4
20260506003036 67 320 2.0 6.0 0.00 0.00 0.00 37 1015.3
20260506001542 69 275 1.0 8.0 0.00 0.00 0.00 35 1015.3
20260506000040 69 317 1.0 4.0 0.00 0.00 0.00 33 1015.3
20260505234531 69 234 4.0 9.0 0.00 0.00 0.00 34 1015.3
20260505233029 68 343 3.0 6.0 0.00 0.00 0.00 34 1015.3
20260505231529 68 305 2.0 8.0 0.00 0.00 0.00 34 1015.4
20260505230033 68 348 3.0 9.0 0.00 0.00 0.00 36 1015.4
20260505224536 69 318 4.0 8.0 0.00 0.00 0.00 34 1015.5
20260505223036 68 215 3.0 8.0 0.00 0.00 0.00 35 1015.6
20260505221523 67 307 4.0 10.0 0.00 0.00 0.00 34 1015.6
20260505220034 66 311 2.0 9.0 0.00 0.00 0.00 36 1015.7
20260505214536 65 306 5.0 9.0 0.00 0.00 0.00 36 1016.0
20260505213033 66 246 2.0 7.0 0.00 0.00 0.00 35 1016.0
20260505211519 67 242 4.0 10.0 0.00 0.00 0.00 34 1016.0
20260505210017 67 257 4.0 7.0 0.00 0.00 0.00 35 1016.0
20260505204524 66 255 4.0 8.0 0.00 0.00 0.00 35 1016.0
20260505203015 66 339 3.0 10.0 0.00 0.00 0.00 34 1015.9
20260505201517 66 338 4.0 10.0 0.00 0.00 0.00 34 1016.0
20260505200011 66 271 2.0 7.0 0.00 0.00 0.00 34 1016.0
20260505194510 66 327 3.0 6.0 0.00 0.00 0.00 34 1016.1
20260505193023 65 339 3.0 8.0 0.00 0.00 0.00 33 1016.3
20260505191503 64 286 3.0 11.0 0.00 0.00 0.00 32 1016.3
20260505190118 63 275 4.0 9.0 0.00 0.00 0.00 32 1016.4
20260505184608 62 269 0.0 9.0 0.00 0.00 0.00 32 1016.5
20260505183055 61 294 5.0 9.0 0.00 0.00 0.00 32 1016.5
20260505181551 61 279 3.0 10.0 0.00 0.00 0.00 33 1016.4
20260505180053 60 350 5.0 10.0 0.00 0.00 0.00 33 1016.4
20260505174549 60 280 3.0 9.0 0.00 0.00 0.00 34 1016.2
20260505173047 61 205 3.0 9.0 0.00 0.00 0.00 31 1016.0
20260505171545 60 303 3.0 7.0 0.00 0.00 0.00 33 1016.0
20260505170041 58 270 3.0 7.0 0.00 0.00 0.00 32 1016.0
20260505164539 57 229 3.0 5.0 0.00 0.00 0.00 34 1015.8
20260505163033 56 267 2.0 6.0 0.00 0.00 0.00 35 1015.9
20260505161531 55 252 1.0 5.0 0.00 0.00 0.00 36 1015.7
20260505153030 54 261 3.0 7.0 0.00 0.00 0.00 38 1015.7
20260505151525 54 317 3.0 5.0 0.00 0.00 0.00 39 1015.6
20260505124504 53 269 3.0 8.0 0.00 0.00 0.00 40 1014.5
20260505123002 53 319 3.0 8.0 0.00 0.00 0.00 40 1014.4
20260505121501 53 355 6.0 10.0 0.00 0.00 0.00 40 1014.4
20260505120100 53 311 3.0 10.0 0.00 0.00 0.00 40 1014.5
20260505114603 53 313 5.0 11.0 0.00 0.00 0.00 40 1014.4
20260505113057 54 314 4.0 9.0 0.00 0.00 0.00 39 1014.5
20260505111559 54 348 3.0 10.0 0.00 0.00 0.00 38 1014.4
20260505101549 55 308 3.0 9.0 0.00 0.00 0.00 37 1014.4
20260505100046 56 245 3.0 8.0 0.00 0.00 0.00 37 1014.4
20260505094548 55 314 3.0 6.0 0.00 0.00 0.00 37 1014.4
20260505093048 55 279 2.0 5.0 0.00 0.00 0.00 37 1014.5
20260505091548 55 267 2.0 6.0 0.00 0.00 0.00 37 1014.6